Location: Newark
(41.0400°S, 62.7845°W)
Time: 21:50:49
(UTC+00:00)

FALCONSAT 3 - Visible Passes

Search period start: 22 January 2022 00:00
Search period end: 01 February 2022 00:00
Orbit: 431 x 434 km, 35.4° (Epoch: 21 January)

Date Brightness Start Highest point End Pass type
(mag) Time Alt. Az. Time Alt. Az. Time Alt. Az.
22 Jan ? 00:21:51 10° WNW 00:24:47 24° NNW 00:27:32 11° NE visible
23 Jan ? 01:16:55 10° NW 01:17:54 11° NNW 01:18:09 11° NNW visible
24 Jan ? 00:31:35 10° NW 00:33:19 13° NNW 00:35:04 10° N visible
